カタログに戻る

FALCON HEAVY DEB

運用中GEO
NORAD 54222·DEBRIS·🇺🇸 United States

打ち上げ Nov 1, 2022 から Cape Canaveral Space Force Station

Loading…

TLE

最新Source: Space-Track

元期: Sep 14, 2026, 11:16 UTC

1 54222U 22144D   26257.46994759  .00000012  00000-0  00000+0 0  9995
2 54222   5.9069  62.5138 0004669 213.6523 146.5134  0.98852530 12533

AllMySatでFALCON HEAVY DEBをリアルタイム追跡

Download on the App Store